ORBCOMM FM 10

Satellite information

Favourite Embed

Satellite Type and Status

PAYLOADIN ORBIT

Key statistics

Satellite ORBCOMM FM 10 at a glance.

Uptime

10112

Days in orbit

Revolutions

≈ 14.5

Per day

Orbit

LEO

Low Earth Orbit

Inclination

45.0

Latest

Satellite identification and parameters

Extended collection of information and parameters for ORBCOMM FM 10.

Object identification

Identified? True

Debris? False

Object name: ORBCOMM FM 10

International designator: 1997-084B

Object number (NORAD): 25113

Object ID (CCSDS): 25113

Country: ORBITAL TELECOMMUNICATIONS SATELLITE (GLOBALSTAR) (ORB)

Current information (Y/N): Y

RCS size: MEDIUM

Orbital parameters

Period: 99.6 minutes

Inclination: 45.016 deg

SMA: 7117.591 km

Apoapsis: 743.71 km

Periapsis: 735.202 km

RAAN: 22.4609 deg

Eccentricy: 0.00059766

Argument of periapsis: 213.4088 deg

Mean anomaly: 146.6387 deg

Mean motion: 14.457834 rev/day

Mean motion (dot): 0.00002337 rev/day2

B* drag term: 0.00069286378 1/REarth

Two-line elements (TLE)

Creation date: Aug. 29, 2025, 2:15 a.m.

Reference frame: TEME

Reference center: EARTH

Epoch: Aug. 28, 2025, 3:38 p.m. UTC

TLE line 0: 0 ORBCOMM FM 10

TLE line 1: 1 25113U 97084B 25240.65175869 .00002337 00000-0 69286-3 0 9999

TLE line 2: 2 25113 45.0160 22.4609 0005977 213.4088 146.6387 14.45783400627003

Live tracking on map

Real-time ground track for satellite ORBCOMM FM 10.

In-orbit conjunctions

There are no conjunctions computed for ORBCOMM FM 10, at the moment. Check back to stay up to date, as we update our databases every day.

Go to all conjunctions

Associated space launch

ORBCOMM FM 10 was lifted into orbit during the mission ‘Pegasus XL HAPS | Orbcomm-A1 - A8’, on board a Pegasus XL HAPS space rocket.

The launch took place on Dec. 23, 1997, 7:11 p.m. from Wallops Flight Facility.

For more information about the launch, click the button.

Launch to space Pegasus XL HAPS | Orbcomm-A1 - A8
Pegasus XL HAPS | Orbcomm-A1 - A8

Agency: N/A

Status: Launch Successful

Launch date: Dec. 23, 1997, 7:11 p.m. UTC

Rocket: Pegasus XL HAPS

Launch pad: Wallops Flight Facility

Location: Air launch to orbit

...

Latest news about this satellite

There are no fresh news available about this satellite. Check back as we update our databases every day.


Newsletter sign-up

Weekly statistics, charts and insights to help you stay on top of the space industry.